When you browse on this site, cookies collect data to enhance your experience and personalize the content and advertising you see.
Visit our Privacy Policy to learn more. By continuing to use the site, you agree to this use of cookies and data.
  • In Czech Republic
  • List of Countries
  • For 7 days
  • Water Temperature
  • Satellite Maps
  • Weather Map
  • Weather Widgets
  • user-avatar
    Login

    Hourly Weather Perth

    Today, 19 December, Wednesday

    Time Temperature Precipitation Wind Pressure Humidity
    00:00 +20°C° 0 mm 4 mps 762 mmHg 57%
    01:00 +20°C° 0 mm 4 mps 762 mmHg 58%
    02:00 +20°C° 0 mm 4 mps 761 mmHg 61%
    03:00 +19°C° 0 mm 4 mps 762 mmHg 64%
    04:00 +19°C° 0 mm 4 mps 762 mmHg 66%
    05:00 +18°C° 0 mm 4 mps 762 mmHg 68%
    06:00 +19°C° 0 mm 4 mps 762 mmHg 63%
    07:00 +21°C° 0 mm 4 mps 763 mmHg 57%
    08:00 +22°C° 0 mm 3 mps 763 mmHg 52%
    09:00 +25°C° 0 mm 3 mps 763 mmHg 44%
    10:00 +27°C° 0 mm 3 mps 763 mmHg 37%
    11:00 +29°C° 0 mm 3 mps 762 mmHg 29%
    12:00 +30°C° 0 mm 4 mps 762 mmHg 28%
    13:00 +32°C° 0 mm 4 mps 762 mmHg 26%
    14:00 +32°C° 0 mm 5 mps 762 mmHg 28%
    15:00 +30°C° 0 mm 5 mps 761 mmHg 28%
    16:00 +30°C° 0 mm 5 mps 761 mmHg 28%
    17:00 +30°C° 0 mm 5 mps 761 mmHg 29%
    18:00 +28°C° 0 mm 5 mps 761 mmHg 34%
    19:00 +26°C° 0 mm 5 mps 761 mmHg 40%
    20:00 +23°C° 0 mm 5 mps 762 mmHg 45%
    21:00 +22°C° 0 mm 5 mps 762 mmHg 46%
    22:00 +22°C° 0 mm 4 mps 762 mmHg 47%
    23:00 +21°C° 0 mm 4 mps 762 mmHg 48%

    Tomorrow, 20 December, Thursday

    Time Temperature Precipitation Wind Pressure Humidity
    00:00 +21°C° 0 mm 4 mps 762 mmHg 46%
    01:00 +21°C° 0 mm 4 mps 762 mmHg 45%
    02:00 +21°C° 0 mm 5 mps 762 mmHg 44%
    03:00 +20°C° 0 mm 5 mps 762 mmHg 47%
    04:00 +20°C° 0 mm 5 mps 762 mmHg 50%
    05:00 +19°C° 0 mm 5 mps 762 mmHg 53%
    06:00 +21°C° 0 mm 5 mps 762 mmHg 49%
    07:00 +22°C° 0 mm 5 mps 762 mmHg 46%
    08:00 +25°C° 0 mm 5 mps 762 mmHg 43%
    09:00 +27°C° 0 mm 5 mps 762 mmHg 37%
    10:00 +30°C° 0 mm 4 mps 762 mmHg 31%
    11:00 +33°C° 0 mm 4 mps 762 mmHg 25%
    12:00 +34°C° 0 mm 4 mps 761 mmHg 23%
    13:00 +35°C° 0 mm 4 mps 761 mmHg 21%
    14:00 +36°C° 0 mm 4 mps 760 mmHg 19%
    15:00 +36°C° 0 mm 5 mps 760 mmHg 19%
    16:00 +36°C° 0 mm 5 mps 759 mmHg 20%
    17:00 +35°C° 0 mm 5 mps 759 mmHg 20%
    18:00 +33°C° 0 mm 5 mps 759 mmHg 23%
    19:00 +32°C° 0 mm 5 mps 759 mmHg 26%
    20:00 +29°C° 0 mm 5 mps 760 mmHg 28%
    21:00 +28°C° 0 mm 6 mps 760 mmHg 29%
    22:00 +28°C° 0 mm 6 mps 760 mmHg 30%
    23:00 +27°C° 0 mm 7 mps 760 mmHg 31%

    Day after tomorrow, 21 December, Friday

    Time Temperature Precipitation Wind Pressure Humidity
    00:00 +26°C° 0 mm 7 mps 760 mmHg 36%
    01:00 +24°C° 0 mm 7 mps 760 mmHg 41%
    02:00 +22°C° 0 mm 7 mps 760 mmHg 46%
    03:00 +22°C° 0 mm 7 mps 760 mmHg 46%
    04:00 +22°C° 0 mm 7 mps 760 mmHg 46%
    05:00 +21°C° 0 mm 7 mps 760 mmHg 47%
    06:00 +23°C° 0 mm 7 mps 761 mmHg 43%
    07:00 +26°C° 0 mm 6 mps 761 mmHg 40%
    08:00 +27°C° 0 mm 6 mps 761 mmHg 36%
    09:00 +30°C° 0 mm 6 mps 760 mmHg 31%
    10:00 +34°C° 0 mm 5 mps 760 mmHg 26%
    11:00 +37°C° 0 mm 4 mps 760 mmHg 20%
    12:00 +38°C° 0 mm 4 mps 759 mmHg 19%
    13:00 +40°C° 0 mm 3 mps 758 mmHg 17%
    14:00 +42°C° 0 mm 3 mps 758 mmHg 15%
    15:00 +42°C° 0 mm 3 mps 757 mmHg 15%
    16:00 +40°C° 0 mm 3 mps 757 mmHg 15%
    17:00 +41°C° 0 mm 4 mps 757 mmHg 15%
    18:00 +38°C° 0 mm 4 mps 757 mmHg 18%
    19:00 +36°C° 0 mm 4 mps 757 mmHg 20%
    20:00 +34°C° 0 mm 4 mps 757 mmHg 22%
    21:00 +33°C° 0 mm 4 mps 757 mmHg 22%
    22:00 +33°C° 0 mm 4 mps 758 mmHg 22%
    23:00 +32°C° 0 mm 4 mps 758 mmHg 22%

    22 December, Saturday

    Time Temperature Precipitation Wind Pressure Humidity
    00:00 +32°C° 0 mm 4 mps 758 mmHg 21%
    01:00 +32°C° 0 mm 4 mps 758 mmHg 20%
    02:00 +32°C° 0 mm 5 mps 757 mmHg 20%
    03:00 +32°C° 0 mm 5 mps 757 mmHg 21%
    04:00 +32°C° 0 mm 5 mps 757 mmHg 22%
    05:00 +32°C° 0 mm 6 mps 757 mmHg 23%
    06:00 +32°C° 0 mm 6 mps 758 mmHg 21%
    07:00 +33°C° 0 mm 6 mps 758 mmHg 20%
    08:00 +34°C° 0 mm 6 mps 759 mmHg 18%
    09:00 +35°C° 0 mm 6 mps 758 mmHg 17%
    10:00 +37°C° 0 mm 5 mps 758 mmHg 16%
    11:00 +39°C° 0 mm 5 mps 758 mmHg 15%
    12:00 +40°C° 0 mm 5 mps 758 mmHg 15%
    13:00 +41°C° 0 mm 5 mps 757 mmHg 16%
    14:00 +42°C° 0 mm 5 mps 757 mmHg 16%
    15:00 +40°C° 0 mm 5 mps 757 mmHg 20%
    16:00 +39°C° 0 mm 5 mps 757 mmHg 23%
    17:00 +37°C° 0 mm 5 mps 756 mmHg 27%
    18:00 +35°C° 0 mm 4 mps 757 mmHg 31%
    19:00 +33°C° 0 mm 4 mps 757 mmHg 35%
    20:00 +30°C° 0 mm 3 mps 757 mmHg 39%
    21:00 +29°C° 0 mm 3 mps 757 mmHg 38%
    22:00 +29°C° 0 mm 2 mps 757 mmHg 38%
    23:00 +28°C° 0 mm 2 mps 757 mmHg 38%

    23 December, Sunday

    Time Temperature Precipitation Wind Pressure Humidity
    00:00 +28°C° 0 mm 2 mps 757 mmHg 38%
    01:00 +27°C° 0 mm 2 mps 757 mmHg 38%
    02:00 +27°C° 0 mm 2 mps 756 mmHg 38%
    03:00 +27°C° 0 mm 2 mps 756 mmHg 38%
    04:00 +27°C° 0 mm 2 mps 756 mmHg 38%
    05:00 +26°C° 0 mm 2 mps 756 mmHg 38%
    06:00 +29°C° 0 mm 2 mps 757 mmHg 33%
    07:00 +31°C° 0 mm 3 mps 757 mmHg 28%
    08:00 +35°C° 0 mm 3 mps 757 mmHg 22%
    09:00 +37°C° 0 mm 3 mps 757 mmHg 21%
    10:00 +38°C° 0 mm 4 mps 757 mmHg 20%
    11:00 +41°C° 0 mm 5 mps 756 mmHg 18%
    12:00 +40°C° 0 mm 5 mps 756 mmHg 20%
    13:00 +40°C° 0 mm 5 mps 755 mmHg 21%
    14:00 +40°C° 0 mm 6 mps 755 mmHg 23%
    15:00 +38°C° 0 mm 6 mps 755 mmHg 26%
    16:00 +36°C° 0 mm 6 mps 755 mmHg 29%
    17:00 +35°C° 0 mm 6 mps 755 mmHg 32%
    18:00 +33°C° 0 mm 5 mps 756 mmHg 37%
    19:00 +30°C° 0 mm 5 mps 756 mmHg 43%
    20:00 +27°C° 0 mm 4 mps 757 mmHg 49%
    21:00 +27°C° 0 mm 4 mps 757 mmHg 49%
    22:00 +26°C° 0 mm 4 mps 757 mmHg 50%
    23:00 +26°C° 0 mm 4 mps 758 mmHg 50%

    24 December, Monday

    Time Temperature Precipitation Wind Pressure Humidity
    00:00 +26°C° 0 mm 4 mps 757 mmHg 51%
    01:00 +25°C° 0 mm 4 mps 757 mmHg 52%
    02:00 +25°C° 0 mm 4 mps 757 mmHg 52%
    03:00 +25°C° 0 mm 4 mps 757 mmHg 52%
    04:00 +23°C° 0 mm 4 mps 757 mmHg 52%
    05:00 +23°C° 0 mm 4 mps 758 mmHg 52%
    06:00 +25°C° 0 mm 4 mps 758 mmHg 46%
    07:00 +27°C° 0 mm 4 mps 758 mmHg 41%
    08:00 +28°C° 0 mm 4 mps 759 mmHg 35%
    09:00 +32°C° 0 mm 4 mps 759 mmHg 32%
    10:00 +34°C° 0 mm 4 mps 758 mmHg 28%
    11:00 +36°C° 0 mm 4 mps 758 mmHg 24%
    12:00 +37°C° 0 mm 4 mps 757 mmHg 24%
    13:00 +39°C° 0 mm 5 mps 757 mmHg 23%
    14:00 +40°C° 0 mm 5 mps 756 mmHg 22%
    15:00 +39°C° 0 mm 6 mps 756 mmHg 24%
    16:00 +38°C° 0 mm 6 mps 756 mmHg 25%
    17:00 +36°C° 0 mm 6 mps 756 mmHg 27%
    18:00 +34°C° 0 mm 6 mps 756 mmHg 31%
    19:00 +32°C° 0 mm 6 mps 756 mmHg 36%
    20:00 +29°C° 0 mm 6 mps 757 mmHg 40%
    21:00 +28°C° 0 mm 5 mps 757 mmHg 41%
    22:00 +28°C° 0 mm 5 mps 757 mmHg 41%
    23:00 +27°C° 0 mm 5 mps 757 mmHg 41%
    Show more